Location: Arrodets-la-Barthe
(43.0306°N, 0.2829°E)
Time: 10:47:18
(UTC+00:00)

Cosmos 2278 - Pass Details

Date: 02 June 2022
Orbit: 838 x 854 km, 71.1° (Epoch: 01 July)

Event Time Altitude Azimuth Distance (km) Brightness Sun altitude
Rises 03:15:47 0° 348° (NNW) 3,427 7.3 -10.4°
Reaches altitude 10° 03:20:32 10° 24° (NNE) 2,490 7.4 -9.7°
Maximum altitude 03:22:04 11° 40° (NE) 2,417 7.7 -9.5°
Drops below altitude 10° 03:23:36 10° 55° (NE) 2,488 7.8 -9.3°
Sets 03:28:20 0° 91° (E) 3,421 7.7 -8.7°
